Memphis, TN

5:20 PM CST on December 18, 2017 (GMT -0600)
Memphis International

Weather History for KMEM - April, 2013

Change the Weather History Date:

Sunday, April 7, 2013

  Actual Average Record
Temperature  
Mean Temperature 64 °F 60 °F  
Max Temperature 70 °F 71 °F 89 °F (1893)
Min Temperature 57 °F 50 °F 30 °F (2007)
Degree Days  
Heating Degree Days 1 6  
Month to date heating degree days 78 49  
Since 1 July heating degree days 2782 2857  
Cooling Degree Days 0 2  
Month to date cooling degree days 0 12  
Year to date cooling degree days 11 32  
Growing Degree Days 14 (Base 50)    
Moisture  
Dew Point 51 °F    
Average Humidity 64    
Maximum Humidity 75    
Minimum Humidity 53    
Precipitation  
Precipitation 0.00 in 0.18 in 2.87 in (1921)
Month to date precipitation 0.49 1.21  
Year to date precipitation 17.44 14.74  
Snow  
Snow 0.00 in 0.00 in - ()
Month to date snowfall 0.0 0.0  
Since 1 July snowfall 0.9 3.8  
Snow Depth 0.00 in    
Sea Level Pressure  
Sea Level Pressure 29.99 in    
Wind  
Wind Speed 9 mph (SSW)    
Max Wind Speed 18 mph    
Max Gust Speed 26 mph    
Visibility 10 miles    
Events      
T = Trace of Precipitation, MM = Missing Value Source: NWS Daily Summary

Daily Weather History Graph

Daily Weather History Graph

Search for Another Location

Airport or City:

Trip Planner

Search our weather history database for the weather conditions in past years. The results will help you decide how hot, cold, wet, or windy it might be!

Date:

Astronomy

Apr. 07, 2013 Rise Set
Actual Time 6:38 AM CDT 7:26 PM CDT
Civil Twilight 6:12 AM CDT 7:52 PM CDT
Nautical Twilight 5:42 AM CDT 8:22 PM CDT
Astronomical Twilight 5:10 AM CDT 8:53 PM CDT
Moon 4:49 AM CDT (4/7) 5:03 PM CDT (4/7)
Length of Visible Light 13h 39m
Length of Day
12h 48m
Waning Crescent, 8% of the Moon is Illuminated
Apr 7
Waning Crescent
Apr 10
New
Apr 18
First Quarter
Apr 25
Full
May 2
Last Quarter

Hourly Weather History & Observations

Time (CDT) Temp. Dew Point Humidity Pressure Visibility Wind Dir Wind Speed Gust Speed Precip Events Conditions
12:54 AM 57.9 °F 43.0 °F 58% 29.97 in 10.0 mi South 9.2 mph - N/A   Mostly Cloudy
1:54 AM 59.0 °F 44.1 °F 58% 29.98 in 10.0 mi South 8.1 mph - N/A   Overcast
2:54 AM 60.1 °F 46.0 °F 60% 29.98 in 10.0 mi SSW 6.9 mph - N/A   Overcast
3:54 AM 61.0 °F 48.9 °F 64% 29.98 in 10.0 mi SSW 8.1 mph - N/A   Overcast
4:54 AM 61.0 °F 50.0 °F 67% 29.99 in 10.0 mi SSW 8.1 mph - N/A   Overcast
5:54 AM 60.1 °F 51.1 °F 72% 30.00 in 10.0 mi South 6.9 mph - N/A   Overcast
6:54 AM 59.0 °F 51.1 °F 75% 30.01 in 10.0 mi South 9.2 mph - N/A   Overcast
7:54 AM 60.1 °F 52.0 °F 75% 30.03 in 10.0 mi SSW 8.1 mph - N/A   Overcast
8:54 AM 62.1 °F 53.1 °F 72% 30.04 in 10.0 mi SSW 8.1 mph - N/A   Overcast
9:54 AM 64.9 °F 54.0 °F 68% 30.04 in 10.0 mi SSW 12.7 mph 25.3 mph N/A   Overcast
10:54 AM 66.0 °F 54.0 °F 65% 30.04 in 10.0 mi SW 15.0 mph 25.3 mph N/A   Overcast
11:38 AM 66.2 °F 53.6 °F 64% 30.05 in 10.0 mi SW 12.7 mph 26.5 mph N/A   Overcast
11:54 AM 66.0 °F 54.0 °F 65% 30.04 in 10.0 mi SSW 13.8 mph 21.9 mph N/A   Overcast
12:05 PM 66.2 °F 53.6 °F 64% 30.04 in 10.0 mi SSW 16.1 mph - N/A   Overcast
12:42 PM 66.2 °F 53.6 °F 64% 30.04 in 10.0 mi SSW 16.1 mph 19.6 mph N/A   Overcast
12:54 PM 66.0 °F 54.0 °F 65% 30.02 in 10.0 mi SSW 11.5 mph 21.9 mph N/A   Overcast
1:54 PM 68.0 °F 55.0 °F 63% 30.01 in 10.0 mi SSW 8.1 mph - N/A   Overcast
2:36 PM 68.0 °F 53.6 °F 60% 30.00 in 10.0 mi SW 5.8 mph - N/A   Overcast
2:54 PM 69.1 °F 55.0 °F 61% 29.99 in 10.0 mi SW 11.5 mph - N/A   Overcast
3:54 PM 70.0 °F 52.0 °F 53% 29.97 in 10.0 mi SSW 8.1 mph - N/A   Overcast
4:54 PM 69.1 °F 51.1 °F 53% 29.96 in 10.0 mi SSW 9.2 mph - N/A   Overcast
5:54 PM 69.1 °F 51.1 °F 53% 29.96 in 10.0 mi SSW 6.9 mph - N/A   Overcast
6:54 PM 68.0 °F 50.0 °F 52% 29.94 in 10.0 mi SSW 8.1 mph - N/A   Mostly Cloudy
7:54 PM 64.9 °F 50.0 °F 58% 29.94 in 10.0 mi South 4.6 mph - N/A   Scattered Clouds
8:54 PM 62.1 °F 50.0 °F 65% 29.95 in 10.0 mi South 5.8 mph - N/A   Partly Cloudy
9:54 PM 62.1 °F 50.0 °F 65% 29.95 in 10.0 mi SSE 4.6 mph - N/A   Partly Cloudy
10:54 PM 63.0 °F 50.0 °F 63% 29.93 in 10.0 mi SE 5.8 mph - N/A   Mostly Cloudy
11:54 PM 64.0 °F 50.0 °F 60% 29.91 in 10.0 mi SSE 11.5 mph - N/A   Scattered Clouds